This is the latest recevied weather packets stored in our database for station/object W7TJC. If no packets are shown the sender has not sent any weather packets the latest 10 day(s).
| Time | Temp. | Humidity | Pressure | Rain* | Wind** | Luminosity | Snow |
|---|---|---|---|---|---|---|---|
| 1777588807 | 22.78° C | 47% | 1018.6 hPa | 0 mm | - | 39 W/m² | - |
| 1777588503 | 22.78° C | 48% | 1018.8 hPa | 0 mm | - | 50 W/m² | - |
| 1777588198 | 22.78° C | 49% | 1018.9 hPa | 0 mm | - | 62 W/m² | - |
| 1777587894 | 22.78° C | 50% | 1019 hPa | 0 mm | - | 128 W/m² | - |
| 1777587590 | 22.22° C | 50% | 1018.8 hPa | 0 mm | - | 102 W/m² | - |
| 1777587285 | 22.22° C | 49% | 1019 hPa | 0 mm | - | 66 W/m² | - |
| 1777586981 | 22.78° C | 50% | 1019 hPa | 0 mm | - | 69 W/m² | - |
| 1777586677 | 22.78° C | 49% | 1018.9 hPa | 0 mm | - | 77 W/m² | - |
| 1777586372 | 22.78° C | 53% | 1019.2 hPa | 0 mm | - | 86 W/m² | - |
| 1777586072 | 22.78° C | 50% | 1019.1 hPa | 0 mm | - | 228 W/m² | - |
| 1777585770 | 22.78° C | 48% | 1019.1 hPa | 0 mm | - | 280 W/m² | - |
| 1777585465 | 22.78° C | 50% | 1019.3 hPa | 0 mm | - | 273 W/m² | - |
| 1777585162 | 22.78° C | 49% | 1019.3 hPa | 0 mm | - | 304 W/m² | - |
| 1777584857 | 22.78° C | 52% | 1019.4 hPa | 0 mm | - | 248 W/m² | - |
| 1777584555 | 22.78° C | 49% | 1019.4 hPa | 0 mm | - | 253 W/m² | - |
| 1777584251 | 22.78° C | 53% | 1019.5 hPa | 0 mm | - | 378 W/m² | - |
| 1777583950 | 22.78° C | 52% | 1019.6 hPa | 0 mm | - | 472 W/m² | - |
| 1777583647 | 22.22° C | 51% | 1019.5 hPa | 0 mm | - | 551 W/m² | - |
| 1777583345 | 22.22° C | 52% | 1019.8 hPa | 0 mm | - | 500 W/m² | - |
| 1777583040 | 22.22° C | 54% | 1019.6 hPa | 0 mm | - | 240 W/m² | - |
| 1777582737 | 22.22° C | 51% | 1019.8 hPa | 0 mm | - | 274 W/m² | - |
| 1777582433 | 21.67° C | 52% | 1019.7 hPa | 0 mm | - | 387 W/m² | - |
| 1777582127 | 22.22° C | 51% | 1019.7 hPa | 0 mm | - | 225 W/m² | - |
| 1777581821 | 22.78° C | 50% | 1019.8 hPa | 0 mm | - | 414 W/m² | - |
| 1777581520 | 22.78° C | 50% | 1019.8 hPa | 0 mm | - | 712 W/m² | - |
* Rain latest hour (hover to see other rain measurements)
** Current wind speed in m/s (hover to see current wind gust speed)